Regional Weather Roundup
Issued by NWS

Home | Current Version | Previous Version | Graphics & Text | Print | Product List | Glossary On
Versions: 1 2 3 4 5 6 7 8 9 10 11 12 13 14 15 16 17 18 19 20 21 22 23 24 25 26 27 28 29 30 31 32 33 34 35 36 37 38 39 40 41 42 43 44 45 46 47 48 49 50
945
ASUS43 KLOT 231903
RWRIL

ILLINOIS REGIONAL WEATHER ROUNDUP
NATIONAL WEATHER SERVICE CHICAGO/ROMEOVILLE IL
100 PM CST THU FEB 23 2017

NOTE: "FAIR" INDICATES FEW OR NO CLOUDS BELOW 12,000 FEET WITH NO
SIGNIFICANT WEATHER AND/OR OBSTRUCTIONS TO VISIBILITY.

* THESE STATIONS ARE NOT UNDER NWS QUALITY CONTROL. THEY ALSO MAY NOT
  REPORT WEATHER SUCH AS PRECIPITATION OR FOG.

ILZ001-002-007-009-015-016-024-232000-
NORTHWEST ILLINOIS

CITY           SKY/WX    TMP DP  RH WIND       PRES   REMARKS
MOLINE         CLOUDY    50  39  66 NE15      29.74F
SAVANNA*       CLOUDY    46  38  74 NE9       29.81R
$$

ILZ003-004-008-010-011-017-018-232000-
NORTH CENTRAL ILLINOIS

CITY           SKY/WX    TMP DP  RH WIND       PRES   REMARKS
ROCKFORD       CLOUDY    48  39  71 NE9       29.82R
FREEPORT*      CLOUDY    44  38  82 NE6       29.83S
ROCHELLE*      CLOUDY    48  42  77 NE10      29.79F
DE KALB*       CLOUDY    45  39  80 NE14      29.79S
PERU*          CLOUDY    50  42  73 NE9       29.78S
$$

ILZ005-006-012>014-019>023-232000-
NORTHEAST ILLINOIS

CITY           SKY/WX    TMP DP  RH WIND       PRES   REMARKS
CHICAGO-OHARE  CLOUDY    43  35  73 NE17      29.81F
CHICAGO-MIDWAY CLOUDY    45  37  73 NE15      29.80F
AURORA         CLOUDY    47  38  71 NE15G22   29.79S
LANSING*       CLOUDY    44  41  88 NE14      29.81S
JOLIET*        CLOUDY    50  42  72 E13       29.79R
WAUKEGAN       CLOUDY    39  34  82 NE9G23    29.84S WCI  33
DUPAGE AIRPORT CLOUDY    44  36  73 NE13      29.79F
KANKAKEE*      CLOUDY    51  43  73 NE16      29.78S
WHEELING       CLOUDY    41  34  76 NE14G20   29.84F
MORRIS*        CLOUDY    52  42  69 E9        29.77R
ROMEOVILLE*    CLOUDY    47  42  84 NE16      29.79R
NORTHERLY ISL    N/A     40  37  89 MISG        N/A
$$

LMZ740>746-232000-
SOUTHERN LAKE MICHIGAN

STATION/POSITION SKY/WX   TEMP    WIND        PRES    VSBY  WAVE
                          AIR SEA DIR/SP/G                  HT/PER
                          (F)     (DEG/KT/KT) (MB)    (MI)  (FT/S)
HARRISON CRIB              38     360/ 13/ 14   N/A
BURNHAM HARBOR             40     350/  9/ 13   N/A
CALUMET HARBOR             39     340/ 11/ 14 1009.5F
BURNS HARBOR               39      60/  8/ 10 1010.2F
MICHIGAN CITY              37      20/  7/  8   N/A
$$

ILZ025>027-034>036-040-047-049-050-058-095>099-232000-
WEST-CENTRAL ILLINOIS

CITY           SKY/WX    TMP DP  RH WIND       PRES   REMARKS
QUINCY         LGT RAIN  49  45  86 NE12      29.68F
GALESBURG*     LGT RAIN  47  44  88 NE10      29.73F
MACOMB*        CLOUDY    48  44  85 NE14      29.74F
JACKSONVILLE*  CLOUDY    52  48  86 NE10      29.70F
PITTSFIELD*    CLOUDY    52  48  85 NE10      29.68F
$$

ILZ028>032-037-038-041>044-048-051>054-059>061-232000-
CENTRAL ILLINOIS

CITY           SKY/WX    TMP DP  RH WIND       PRES   REMARKS
PONTIAC        CLOUDY    56  50  81 NE9       29.75F
DECATUR        CLOUDY    59  53  80 E10       29.70F
PEORIA         CLOUDY    53  45  74 NE10      29.74F
LACON*         LGT RAIN  50  45  82 NE9       29.75F
LINCOLN*       CLOUDY    57  50  77 NE8       29.74R
SPRINGFIELD    CLOUDY    57  50  77 NE10      29.71F
TAYLORVILLE    CLOUDY    61  55  82 N5        29.70S
$$

ILZ033-039-045-046-055>057-062-063-232000-
EAST-CENTRAL ILLINOIS

CITY           SKY/WX    TMP DP  RH WIND       PRES   REMARKS
CHAMPAIGN      CLOUDY    60  52  74 NE10      29.72F
RANTOUL*       CLOUDY    62  54  75 E9        29.73F
MATTOON        MOSUNNY   67  56  67 S9        29.69F
PARIS*         CLOUDY    66  56  70 SW10      29.73F
$$

ILZ079-100>102-232000-
SOUTHWEST ILLINOIS

CITY           SKY/WX    TMP DP  RH WIND       PRES   REMARKS
ALTON          PTSUNNY   68  55  64 SE9       29.65
BELLEVILLE     MOSUNNY   69  58  68 E12G18    29.64F
CAHOKIA*       MOSUNNY   71  54  54 SE10      29.64F
SPARTA*        CLOUDY    61  56  82 S10       29.70F
$$

ILZ064>066-069>071-074>076-080>082-084>086-088>090-092>094-232000-
SOUTH-CENTRAL ILLINOIS

CITY           SKY/WX    TMP DP  RH WIND       PRES   REMARKS
CARBONDALE     PTSUNNY   67  56  67 S14G24    29.70F
CAIRO*         PTSUNNY   69  56  63 SW15      29.72F
EFFINGHAM*     PTSUNNY   68  57  66 SE10      29.71F
MARION         CLOUDY    70  59  68 S7        29.72F
MT. VERNON     CLOUDY    66  55  67 SW15      29.71F
CENTRALIA*     CLOUDY    69  57  66 S16       29.69F
SALEM*         PTSUNNY   67  55  64 S14       29.70F
METROPOLIS*    CLOUDY    71  58  63 S8        29.73F
$$

ILZ067-068-072-073-078-083-087-091-232000-
SOUTHEAST ILLINOIS

CITY           SKY/WX    TMP DP  RH WIND       PRES   REMARKS
LAWRENCEVILLE  CLOUDY    68  57  68 SW12      29.72F
FLORA*         MOSUNNY   70  57  63 SW14      29.72F
FAIRFIELD*     CLOUDY    67  56  66 S7        29.71F
HARRISBURG*    PTSUNNY   69  57  66 SW13      29.73F
ROBINSON*      PTSUNNY   69  56  61 SW13      29.72F
CARMI*         CLOUDY    68  57  67 SW13      29.72F
$$

ABBREVIATIONS USED IN REMARKS
   TC - TEMPERATURE IN CELSIUS
  WCI - WIND CHILL INDEX
   HX - HEAT INDEX
  VSB - VISIBILITY
$$





USA.gov is the U.S. government's official web portal to all federal, state and local government web resources and services.